Regional Weather Roundup
Issued by NWS

Home | Current Version | Previous Version | Text Only | Print | Product List | Glossary Off
Versions: 1 2 3 4 5 6 7 8 9 10 11 12 13 14 15 16 17 18 19 20 21 22 23 24 25 26 27 28 29 30 31 32 33 34 35 36 37 38 39 40 41 42 43 44 45 46 47 48 49 50

000
ASUS43 KBIS 161002
RWRND

NORTH DAKOTA REGIONAL WEATHER ROUNDUP
NATIONAL WEATHER SERVICE BISMARCK ND
400 AM CST MON JAN 16 2017

NOTE: "FAIR" INDICATES FEW OR NO CLOUDS BELOW 12,000 FEET WITH NO
SIGNIFICANT WEATHER AND/OR OBSTRUCTIONS TO VISIBILITY.


NDZ001>003-009>011-017-161100-
NORTHWEST NORTH DAKOTA

CITY           SKY/WX    TMP DP  RH WIND       PRES   REMARKS
WILLISTON      FAIR       9   5  84 W8        30.06R WCI  -3
MINOT          FAIR      16   8  71 SW9       29.99F WCI   4
$$

NDZ018>021-031>035-040>046-161100-
SOUTHWEST NORTH DAKOTA

CITY           SKY/WX    TMP DP  RH WIND       PRES   REMARKS
BISMARCK       FAIR      -2  -8  76 CALM      30.06F
DICKINSON      FAIR      14   5  67 W10       30.02R WCI   1
GARRISON         N/A     12   4  70 W8        30.01F WCI   0
HETTINGER ARPT CLOUDY    11   3  70 NW8       30.06R WCI  -1
$$

NDZ004>008-012>016-024-026-027-054-161100-
NORTHEAST NORTH DAKOTA

CITY           SKY/WX    TMP DP  RH WIND       PRES   REMARKS
GRAND FORKS    CLOUDY     6   0  76 S12       30.05F WCI  -9
GRND FRKS AFB  CLOUDY     6   0  76 SW3       30.05S
DEVILS LAKE    FAIR       8   3  80 W5        30.01F WCI   0
$$

NDZ022-023-025-028>030-036>039-047>053-161100-
SOUTHEAST NORTH DAKOTA

CITY           SKY/WX    TMP DP  RH WIND       PRES   REMARKS
FARGO          CLOUDY     9   5  84 S8        30.09F WCI  -3
JAMESTOWN      FAIR      11   4  73 W12       30.03F WCI  -3
$$




USA.gov is the U.S. government's official web portal to all federal, state and local government web resources and services.